Regional Weather Roundup
Issued by NWS

Home | Current Version | Previous Version | Text Only | Print | Product List | Glossary Off
Versions: 1 2 3 4 5 6 7 8 9 10 11 12 13 14 15 16 17 18 19 20 21 22 23 24 25 26 27 28 29 30 31 32 33 34 35 36 37 38 39 40 41 42 43 44 45 46 47 48 49 50

000
ASUS45 KSLC 141810
RWRUT

UTAH REGIONAL WEATHER ROUNDUP
NATIONAL WEATHER SERVICE SALT LAKE CITY UT
1100 AM MST SUN FEB 14 2016

UTZ001>011-023>025-141900-

NORTHERN UTAH

CITY           SKY/WX    TMP DP  RH WIND       PRES   REMARKS
BRIGHAM CITY   CLOUDY    30  29  94 CALM      30.28S
HILL AFB       LGT SNOW  32  32 100 SE6       30.25R VSB 1   WCI  26
LOGAN          LGT SNOW  31  29  92 N8        30.23S FOG     WCI  23
OGDEN          MIX PCPN  32  32 100 E5        30.26S VSB 3/4 WCI  27
PROVO AIRPORT  FOG       27  25  93 CALM      30.30R VSB 3/4
SALT LAKE CITY CLOUDY    32  30  92 SE12      30.26S FOG     WCI  23
VERNAL         CLOUDY    29  21  72 SE3       30.15R
WENDOVER       PTSUNNY   34  28  80 S3        30.26F
HEBER CITY     LGT SNOW  28  23  80 CALM      30.24
WEST JORDAN    CLOUDY    32  32 100 S9        30.26F WCI  24

$$

UTZ012>022-026-027-141900-

SOUTHERN/CENTRAL UTAH

CITY           SKY/WX    TMP DP  RH WIND       PRES   REMARKS
BLANDING       CLOUDY    39  30  71 CALM      30.23F
BRYCE CANYON   SUNNY     38  14  37 NW16G22   30.22F WCI  29
CEDAR CITY     MOSUNNY   38  22  52 E5        30.22S WCI  34
DELTA          PTSUNNY   24  24  99 SE5       30.27S WCI  18
HANKSVILLE     CLOUDY    34  32  93 CALM      30.20S
MILFORD        MOSUNNY   21  18  88 SE6       30.26R WCI  13
MOAB/CYNLANDS  CLOUDY    37  32  82 CALM      30.15F
PRICE          CLOUDY    40  23  50 S8        30.15S WCI  34
ST GEORGE      CLOUDY    50  25  37 SW6       30.22F
KANAB          SUNNY     48  21  34 SW6       30.23

$$

REGIONAL REPORTS     COLORADO/ARIZONA

CITY           SKY/WX    TMP DP  RH WIND       PRES   REMARKS
CRAIG, CO      LGT SNOW  23  18  81 CALM      30.16R
GRAND JUNCTION CLOUDY    35  28  75 CALM      30.15S
RIFLE          CLOUDY    31  22  69 CALM      30.16R
MONTROSE       CLOUDY    37  23  56 CALM      30.16F
CORTEZ         CLOUDY    39  21  48 SE3       30.15F
PAGE, AZ       MOSUNNY   46  25  43 NW5       30.17F
GRAND CANYON   MOSUNNY   55  19  24 CALM      30.23F
KINGMAN        SUNNY     61  23  23 N9        30.16F
FLAGSTAFF      PTSUNNY   50  15  24 VRB3      30.23R

$$

REGIONAL REPORTS    NEVADA/IDAHO/WYOMING

CITY           SKY/WX    TMP DP  RH WIND       PRES   REMARKS
LAS VEGAS, NV  MOSUNNY   64  16  15 W8        30.13F
ELY            CLOUDY    39  23  52 CALM      30.31R
ELKO           PTSUNNY   42  31  64 SW5       30.29S
POCATELLO, ID  CLOUDY    37  34  89 SW24G33   30.19S WCI  26
BURLEY         CLOUDY    40  37  89 W14G20    30.20F WCI  32
EVANSTON, WY   CLOUDY    33  28  81 SW25      30.16R WCI  20
ROCK SPRINGS   CLOUDY    33  26  75 W33G39    30.06F WCI  18
KEMMERER       CLOUDY    32  30  93 W23G30    30.11S FOG     WCI  19

$$



USA.gov is the U.S. government's official web portal to all federal, state and local government web resources and services.